This demonstration page uses our WeatherBlox Daily Observations layout. Learn more.

Left ArrowRight Arrow

40.92945, -100.16068

Hourly Observations for February 25, 2015

Temp ( °F °C ) Dew Point ( °F °C ) Humidity (%) Winds ( mph kmh ) Pressure ( in mb ) Visibility ( mi km ) Precip ( " mm )
12:15 am 00:15 Clear 33 0.7 26 -3.6 73 73 Calm 29.85 1011 10 16 N/A
12:35 am 00:35 Clear 31 -0.6 24 -4.6 75 75 WNW 5 7 29.85 1011 10 16 N/A
12:55 am 00:55 Clear 32 -0.1 25 -3.8 76 76 W 3 6 29.85 1011 10 16 N/A
1:15 am 01:15 Clear 32 0 26 -3.5 78 78 WSW 8 13 29.85 1011 10 16 N/A
1:35 am 01:35 Clear 32 0 26 -3.6 77 77 WSW 6 9 29.85 1011 10 16 N/A
1:55 am 01:55 Clear 31 -0.7 25 -4.1 78 78 WSW 5 7 29.85 1011 10 16 N/A
2:15 am 02:15 Clear 30 -1.3 24 -4.5 79 79 W 6 9 29.83 1010 10 16 N/A
2:35 am 02:35 Clear 31 -0.6 24 -4.5 75 75 W 3 6 29.83 1010 10 16 N/A
2:55 am 02:55 Clear 32 -0.2 24 -4.7 72 72 W 6 9 29.83 1010 10 16 N/A
3:15 am 03:15 Clear 31 -0.5 24 -4.5 75 75 WSW 6 9 29.83 1010 10 16 N/A
3:35 am 03:35 Clear 33 0.6 24 -4.6 68 68 W 6 9 29.77 1008 10 16 N/A
3:55 am 03:55 Clear 32 0.2 24 -4.5 71 71 WSW 5 7 29.80 1009 10 16 N/A
4:15 am 04:15 Clear 32 0.2 24 -4.5 71 71 W 7 11 29.80 1009 10 16 N/A
4:35 am 04:35 Clear 32 -0.2 23 -5 70 70 WSW 3 6 29.80 1009 10 16 N/A
4:55 am 04:55 Clear 30 -1 22 -5.5 72 72 WSW 5 7 29.80 1009 10 16 N/A
5:15 am 05:15 Clear 30 -1 22 -5.5 72 72 WSW 7 11 29.80 1009 10 16 N/A
5:35 am 05:35 Clear 32 -0.2 24 -4.6 73 73 WSW 7 11 29.80 1009 10 16 N/A
5:55 am 05:55 Clear 31 -0.3 24 -4.5 74 74 WSW 5 7 29.80 1009 10 16 N/A
6:15 am 06:15 Clear 32 0.1 24 -4.5 72 72 W 7 11 29.80 1009 10 16 N/A
6:35 am 06:35 Clear 32 -0.2 24 -4.7 72 72 W 7 11 29.80 1009 10 16 N/A
6:55 am 06:55 Partly Cloudy 32 0 24 -4.7 71 71 W 5 7 29.80 1009 10 16 N/A
7:15 am 07:15 Partly Cloudy 32 0 24 -4.3 73 73 W 5 7 29.80 1009 10 16 N/A
7:35 am 07:35 Mostly Cloudy 34 0.9 26 -3.6 72 72 W 10 17 29.77 1008 10 16 N/A
7:55 am 07:55 Cloudy 35 1.7 26 -3.5 69 69 W 5 7 29.77 1008 10 16 N/A
8:15 am 08:15 Cloudy 37 2.7 28 -2 71 71 WNW 9 15 29.80 1009 10 16 N/A
8:35 am 08:35 Cloudy 37 2.5 29 -1.6 75 75 WNW 7 11 29.80 1009 10 16 N/A
8:55 am 08:55 Cloudy 37 2.8 30 -1.3 75 75 WNW 8 13 29.80 1009 10 16 N/A
9:15 am 09:15 Cloudy 39 3.9 32 0 76 76 WNW 8 13 29.83 1010 10 16 N/A
9:35 am 09:35 Cloudy 44 6.6 33 0.8 67 67 NW 15 24 29.80 1009 10 16 N/A
9:55 am 09:55 Cloudy 46 7.5 32 0 59 59 NNW 18 30 29.77 1008 10 16 N/A
10:15 am 10:15 Cloudy 46 7.5 32 0 59 59 N 24 39 29.77 1008 10 16 N/A
10:35 am 10:35 Mostly Cloudy 45 7.1 32 0 61 61 N 26 43 29.83 1010 10 16 N/A
10:55 am 10:55 Mostly Cloudy 45 7 33 0.3 63 63 N 25 41 29.83 1010 10 16 N/A
11:15 am 11:15 Mostly Cloudy 46 7.5 32 0.1 60 60 N 22 35 29.80 1009 10 16 N/A
11:35 am 11:35 Mostly Cloudy 45 7.1 32 0.1 61 61 N 23 37 29.85 1011 10 16 N/A
11:55 am 11:55 Cloudy 44 6.9 31 -0.5 60 60 N 29 46 29.85 1011 10 16 N/A
12:15 pm 12:15 Cloudy 44 6.5 31 -0.7 60 60 N 32 52 29.85 1011 10 16 N/A
12:35 pm 12:35 Cloudy 43 6 30 -1.2 60 60 N 26 43 29.85 1011 10 16 N/A
12:55 pm 12:55 Cloudy 42 5.6 30 -1.3 62 62 N 28 44 29.88 1012 10 16 N/A
1:15 pm 13:15 Cloudy 42 5.3 30 -1.2 63 63 N 23 37 29.91 1013 10 16 N/A
1:35 pm 13:35 Cloudy 41 4.8 30 -1.1 66 66 N 25 41 29.94 1014 10 16 N/A
1:55 pm 13:55 Cloudy 40 4.4 30 -1 68 68 N 24 39 29.94 1014 10 16 N/A
2:15 pm 14:15 Cloudy 40 4.5 28 -2.5 61 61 N 25 41 29.94 1014 10 16 N/A
2:35 pm 14:35 Cloudy 38 3.6 27 -3 62 62 N 28 44 29.97 1015 10 16 N/A
2:55 pm 14:55 Mostly Cloudy 36 2.3 25 -3.8 64 64 N 31 50 30.00 1016 10 16 N/A
3:15 pm 15:15 Cloudy 33 0.6 23 -4.9 67 67 N 28 44 30.03 1017 10 16 N/A
3:35 pm 15:35 Cloudy 32 0 22 -5.7 66 66 N 25 41 30.06 1018 10 16 N/A
3:55 pm 15:55 Mostly Cloudy 32 0 21 -6.2 63 63 N 25 41 30.09 1019 10 16 N/A
4:15 pm 16:15 Partly Cloudy 31 -0.3 20 -6.7 62 62 N 26 43 30.12 1020 10 16 N/A
4:35 pm 16:35 Mostly Cloudy 29 -1.8 18 -7.6 65 65 N 23 37 30.12 1020 10 16 N/A
4:55 pm 16:55 Mostly Cloudy 27 -2.6 17 -8.3 65 65 N 25 41 30.18 1022 10 16 N/A
5:15 pm 17:15 Mostly Cloudy 27 -2.8 16 -8.7 64 64 N 21 33 30.15 1021 10 16 N/A
5:35 pm 17:35 Cloudy 26 -3.4 15 -9.2 65 65 N 24 39 30.18 1022 10 16 N/A
5:55 pm 17:55 Cloudy 25 -4 15 -9.5 66 66 N 17 28 30.18 1022 10 16 N/A
6:15 pm 18:15 Cloudy 24 -4.5 14 -9.9 66 66 N 17 28 30.18 1022 10 16 N/A
6:35 pm 18:35 Cloudy 23 -4.8 14 -10 67 67 NNE 21 33 30.24 1024 10 16 N/A
6:55 pm 18:55 Cloudy 22 -5.4 13 -10.5 68 68 NNE 21 33 30.24 1024 10 16 N/A
7:15 pm 19:15 Cloudy 22 -5.8 13 -10.7 69 69 N 20 31 30.27 1025 10 16 N/A
7:35 pm 19:35 Mostly Cloudy 20 -6.7 12 -11.2 71 71 NNE 20 31 30.27 1025 10 16 N/A
7:55 pm 19:55 Mostly Cloudy 20 -6.8 11 -11.5 70 70 N 18 30 30.33 1027 10 16 N/A
8:15 pm 20:15 Cloudy 19 -7.2 10 -12.1 68 68 N 20 31 30.36 1028 10 16 N/A
8:35 pm 20:35 Cloudy 19 -7.5 10 -12.2 69 69 N 20 31 30.36 1028 10 16 N/A
8:55 pm 20:55 Cloudy 18 -7.8 9 -12.6 69 69 NNE 22 35 30.36 1028 10 16 N/A
9:15 pm 21:15 Cloudy 18 -8 9 -12.8 69 69 N 21 33 30.39 1029 10 16 N/A
9:35 pm 21:35 Cloudy 17 -8.2 9 -13 69 69 NNE 16 26 30.39 1029 10 16 N/A
9:55 pm 21:55 Cloudy 17 -8.5 9 -13 70 70 N 20 31 30.42 1030 10 16 N/A
10:15 pm 22:15 Cloudy 17 -8.6 8 -13.3 69 69 N 13 20 30.48 1032 10 16 N/A
10:35 pm 22:35 Cloudy 17 -8.5 9 -13 70 70 N 17 28 30.45 1031 10 16 N/A
10:55 pm 22:55 Cloudy 17 -8.5 8 -13.4 68 68 N 15 24 30.45 1031 10 16 N/A
11:15 pm 23:15 Cloudy 16 -8.7 8 -13.6 68 68 N 14 22 30.48 1032 10 16 N/A
11:35 pm 23:35 Cloudy 16 -8.9 8 -13.5 70 70 N 16 26 30.48 1032 10 16 N/A
11:55 pm 23:55 Cloudy 16 -9 8 -13.5 70 70 N 18 30 30.48 1032 10 16 N/A

Powered by AerisWeather